| time (UTC) | temp F | wind direction | speed MPH | gust MPH | rain 1hr in | rain 24hr in | rain mn in | humidity % | barometer mb |
| 20260505021923 | 59 | 354 | 0.0 | 0.0 | 0.00 | 0.00 | 0.00 | 52 | 1034.6 |
| 20260505021419 | 58 | 349 | 0.0 | 0.0 | 0.00 | 0.00 | 0.00 | 53 | 1034.6 |
| 20260505020915 | 58 | 348 | 0.0 | 0.0 | 0.00 | 0.00 | 0.00 | 53 | 1034.5 |
| 20260505020410 | 59 | 325 | 0.0 | 0.0 | 0.00 | 0.00 | 0.00 | 53 | 1034.6 |
| 20260505015908 | 59 | 326 | 0.0 | 0.0 | 0.00 | 0.00 | 0.00 | 51 | 1034.6 |
| 20260505015405 | 60 | 331 | 0.0 | 0.0 | 0.00 | 0.00 | 0.00 | 50 | 1034.5 |
| 20260505014902 | 60 | 328 | 0.0 | 0.0 | 0.00 | 0.00 | 0.00 | 49 | 1034.6 |
| 20260505014359 | 60 | 342 | 0.0 | 0.0 | 0.00 | 0.00 | 0.00 | 49 | 1034.5 |
| 20260505013855 | 60 | 328 | 0.0 | 1.0 | 0.00 | 0.00 | 0.00 | 49 | 1034.7 |
| 20260505013352 | 60 | 328 | 0.0 | 0.0 | 0.00 | 0.00 | 0.00 | 49 | 1034.3 |
| 20260505012851 | 61 | 328 | 0.0 | 0.0 | 0.00 | 0.00 | 0.00 | 48 | 1034.4 |
| 20260505012349 | 61 | 328 | 0.0 | 0.0 | 0.00 | 0.00 | 0.00 | 47 | 1034.3 |
| 20260505011844 | 61 | 328 | 0.0 | 0.0 | 0.00 | 0.00 | 0.00 | 47 | 1034.2 |
| 20260505011341 | 62 | 328 | 0.0 | 0.0 | 0.00 | 0.00 | 0.00 | 46 | 1034.5 |
| 20260505010837 | 62 | 328 | 0.0 | 0.0 | 0.00 | 0.00 | 0.00 | 46 | 1034.4 |
| 20260505010333 | 62 | 328 | 0.0 | 0.0 | 0.00 | 0.00 | 0.00 | 46 | 1034.3 |
| 20260505005830 | 62 | 328 | 0.0 | 0.0 | 0.00 | 0.00 | 0.00 | 46 | 1034.3 |
| 20260505005327 | 62 | 328 | 0.0 | 0.0 | 0.00 | 0.00 | 0.00 | 45 | 1034.3 |
| 20260505004824 | 62 | 328 | 0.0 | 0.0 | 0.00 | 0.00 | 0.00 | 45 | 1034.2 |
| 20260505004320 | 62 | 328 | 0.0 | 0.0 | 0.00 | 0.00 | 0.00 | 44 | 1034.1 |
| 20260505003818 | 62 | 328 | 0.0 | 0.0 | 0.00 | 0.00 | 0.00 | 44 | 1034.3 |
| 20260505003315 | 62 | 327 | 0.0 | 0.0 | 0.00 | 0.00 | 0.00 | 44 | 1034.1 |
| 20260505002811 | 62 | 329 | 0.0 | 0.0 | 0.00 | 0.00 | 0.00 | 45 | 1034.0 |
| 20260505002308 | 63 | 329 | 0.0 | 0.0 | 0.00 | 0.00 | 0.00 | 44 | 1033.9 |
| 20260505001806 | 63 | 329 | 0.0 | 0.0 | 0.00 | 0.00 | 0.00 | 43 | 1034.0 |
| 20260505001303 | 64 | 328 | 0.0 | 0.0 | 0.00 | 0.00 | 0.00 | 43 | 1033.9 |
| 20260505000800 | 64 | 326 | 0.0 | 1.0 | 0.00 | 0.00 | 0.00 | 43 | 1033.7 |
| 20260505000258 | 65 | 327 | 0.0 | 0.0 | 0.00 | 0.00 | 0.00 | 42 | 1033.7 |
| 20260504235754 | 65 | 22 | 1.0 | 1.0 | 0.00 | 0.00 | 0.00 | 41 | 1033.7 |
| 20260504235250 | 65 | 328 | 0.0 | 0.0 | 0.00 | 0.00 | 0.00 | 41 | 1033.6 |
| 20260504234748 | 65 | 329 | 0.0 | 0.0 | 0.00 | 0.00 | 0.00 | 41 | 1033.6 |
| 20260504234245 | 65 | 303 | 0.0 | 1.0 | 0.00 | 0.00 | 0.00 | 41 | 1033.5 |
| 20260504233741 | 65 | 280 | 1.0 | 2.0 | 0.00 | 0.00 | 0.00 | 40 | 1033.5 |
| 20260504233237 | 65 | 322 | 0.0 | 0.0 | 0.00 | 0.00 | 0.00 | 41 | 1033.6 |
| 20260504232735 | 66 | 331 | 0.0 | 0.0 | 0.00 | 0.00 | 0.00 | 40 | 1033.4 |
| 20260504232231 | 66 | 321 | 2.0 | 3.0 | 0.00 | 0.00 | 0.00 | 39 | 1033.3 |
| 20260504231728 | 66 | 326 | 1.0 | 1.0 | 0.00 | 0.00 | 0.00 | 40 | 1033.2 |
| 20260504231225 | 66 | 342 | 1.0 | 2.0 | 0.00 | 0.00 | 0.00 | 40 | 1033.1 |
| 20260504230721 | 66 | 315 | 2.0 | 2.0 | 0.00 | 0.00 | 0.00 | 39 | 1033.2 |
| 20260504230220 | 66 | 334 | 0.0 | 1.0 | 0.00 | 0.00 | 0.00 | 40 | 1033.1 |
| 20260504225718 | 67 | 328 | 0.0 | 0.0 | 0.00 | 0.00 | 0.00 | 39 | 1033.0 |
| 20260504225214 | 67 | 283 | 3.0 | 3.0 | 0.00 | 0.00 | 0.00 | 38 | 1032.8 |
| 20260504224711 | 67 | 323 | 0.0 | 0.0 | 0.00 | 0.00 | 0.00 | 39 | 1032.9 |
| 20260504224209 | 67 | 312 | 1.0 | 1.0 | 0.00 | 0.00 | 0.00 | 39 | 1033.1 |
| 20260504223705 | 67 | 329 | 1.0 | 1.0 | 0.00 | 0.00 | 0.00 | 39 | 1032.8 |
| 20260504223200 | 67 | 323 | 0.0 | 1.0 | 0.00 | 0.00 | 0.00 | 38 | 1033.0 |
| 20260504222658 | 67 | 285 | 3.0 | 5.0 | 0.00 | 0.00 | 0.00 | 37 | 1032.8 |
| 20260504222154 | 67 | 337 | 0.0 | 0.0 | 0.00 | 0.00 | 0.00 | 38 | 1033.1 |
| 20260504221652 | 67 | 277 | 3.0 | 5.0 | 0.00 | 0.00 | 0.00 | 38 | 1032.9 |
| 20260504221149 | 68 | 323 | 1.0 | 2.0 | 0.00 | 0.00 | 0.00 | 37 | 1032.9 |
| 20260504220645 | 70 | 310 | 4.0 | 6.0 | 0.00 | 0.00 | 0.00 | 35 | 1032.8 |
| 20260504220143 | 71 | 187 | 3.0 | 3.0 | 0.00 | 0.00 | 0.00 | 34 | 1032.8 |
| 20260504215639 | 71 | 306 | 0.0 | 1.0 | 0.00 | 0.00 | 0.00 | 33 | 1032.7 |
| 20260504215136 | 71 | 304 | 2.0 | 2.0 | 0.00 | 0.00 | 0.00 | 34 | 1032.8 |
| 20260504214632 | 71 | 278 | 2.0 | 3.0 | 0.00 | 0.00 | 0.00 | 34 | 1032.7 |
| 20260504214130 | 71 | 73 | 0.0 | 1.0 | 0.00 | 0.00 | 0.00 | 34 | 1032.8 |
| 20260504213625 | 71 | 197 | 2.0 | 2.0 | 0.00 | 0.00 | 0.00 | 35 | 1032.7 |
| 20260504213122 | 71 | 266 | 2.0 | 2.0 | 0.00 | 0.00 | 0.00 | 33 | 1032.9 |
| 20260504212618 | 71 | 319 | 2.0 | 3.0 | 0.00 | 0.00 | 0.00 | 35 | 1032.7 |
| 20260504212115 | 71 | 326 | 0.0 | 0.0 | 0.00 | 0.00 | 0.00 | 36 | 1032.9 |
| 20260504211613 | 70 | 324 | 2.0 | 3.0 | 0.00 | 0.00 | 0.00 | 35 | 1032.7 |
| 20260504211109 | 70 | 325 | 1.0 | 1.0 | 0.00 | 0.00 | 0.00 | 35 | 1033.1 |
| 20260504210607 | 71 | 303 | 6.0 | 7.0 | 0.00 | 0.00 | 0.00 | 33 | 1032.9 |
| 20260504205601 | 70 | 302 | 2.0 | 2.0 | 0.00 | 0.00 | 0.00 | 34 | 1033.0 |
| 20260504205058 | 70 | 293 | 2.0 | 2.0 | 0.00 | 0.00 | 0.00 | 35 | 1032.9 |
| 20260504204556 | 71 | 310 | 3.0 | 3.0 | 0.00 | 0.00 | 0.00 | 34 | 1032.9 |
| 20260504204055 | 71 | 338 | 1.0 | 2.0 | 0.00 | 0.00 | 0.00 | 33 | 1033.2 |
| 20260504203553 | 70 | 327 | 1.0 | 1.0 | 0.00 | 0.00 | 0.00 | 35 | 1032.9 |
| 20260504203050 | 71 | 325 | 2.0 | 2.0 | 0.00 | 0.00 | 0.00 | 35 | 1033.2 |
| 20260504202545 | 70 | 315 | 1.0 | 1.0 | 0.00 | 0.00 | 0.00 | 37 | 1032.9 |
| 20260504202042 | 69 | 322 | 1.0 | 1.0 | 0.00 | 0.00 | 0.00 | 35 | 1032.9 |
| 20260504201539 | 69 | 340 | 0.0 | 1.0 | 0.00 | 0.00 | 0.00 | 37 | 1033.1 |
| 20260504201037 | 69 | 316 | 1.0 | 1.0 | 0.00 | 0.00 | 0.00 | 37 | 1033.0 |
| 20260504200533 | 69 | 171 | 3.0 | 3.0 | 0.00 | 0.00 | 0.00 | 36 | 1033.1 |
| 20260504200030 | 71 | 192 | 2.0 | 3.0 | 0.00 | 0.00 | 0.00 | 35 | 1033.2 |
| 20260504195526 | 70 | 314 | 1.0 | 1.0 | 0.00 | 0.00 | 0.00 | 35 | 1033.1 |
| 20260504195023 | 72 | 272 | 3.0 | 5.0 | 0.00 | 0.00 | 0.00 | 34 | 1033.1 |
| 20260504194519 | 71 | 253 | 3.0 | 5.0 | 0.00 | 0.00 | 0.00 | 34 | 1033.2 |
| 20260504194015 | 71 | 1 | 2.0 | 2.0 | 0.00 | 0.00 | 0.00 | 34 | 1033.2 |
| 20260504193512 | 70 | 338 | 3.0 | 6.0 | 0.00 | 0.00 | 0.00 | 35 | 1033.3 |
| 20260504193011 | 69 | 258 | 3.0 | 5.0 | 0.00 | 0.00 | 0.00 | 38 | 1033.3 |
| 20260504192509 | 70 | 282 | 2.0 | 3.0 | 0.00 | 0.00 | 0.00 | 37 | 1033.1 |
| 20260504192007 | 70 | 302 | 1.0 | 2.0 | 0.00 | 0.00 | 0.00 | 37 | 1033.5 |
| 20260504191504 | 70 | 284 | 3.0 | 5.0 | 0.00 | 0.00 | 0.00 | 37 | 1033.3 |
| 20260504190959 | 69 | 313 | 1.0 | 1.0 | 0.00 | 0.00 | 0.00 | 38 | 1033.3 |
| 20260504190455 | 69 | 320 | 2.0 | 3.0 | 0.00 | 0.00 | 0.00 | 37 | 1033.3 |
| 20260504185952 | 69 | 300 | 1.0 | 2.0 | 0.00 | 0.00 | 0.00 | 37 | 1033.4 |
| 20260504185449 | 66 | 302 | 1.0 | 1.0 | 0.00 | 0.00 | 0.00 | 41 | 1033.3 |
| 20260504184945 | 65 | 335 | 0.0 | 0.0 | 0.00 | 0.00 | 0.00 | 41 | 1033.4 |
| 20260504184441 | 66 | 295 | 1.0 | 2.0 | 0.00 | 0.00 | 0.00 | 41 | 1033.4 |
| 20260504183937 | 67 | 283 | 3.0 | 3.0 | 0.00 | 0.00 | 0.00 | 39 | 1033.5 |
| 20260504183434 | 66 | 316 | 1.0 | 1.0 | 0.00 | 0.00 | 0.00 | 40 | 1033.5 |
| 20260504182932 | 66 | 291 | 2.0 | 3.0 | 0.00 | 0.00 | 0.00 | 43 | 1033.5 |
| 20260504182429 | 66 | 289 | 2.0 | 2.0 | 0.00 | 0.00 | 0.00 | 41 | 1033.6 |
| 20260504181926 | 65 | 348 | 1.0 | 1.0 | 0.00 | 0.00 | 0.00 | 42 | 1033.6 |
| 20260504181423 | 65 | 293 | 2.0 | 2.0 | 0.00 | 0.00 | 0.00 | 42 | 1033.5 |
| 20260504180922 | 64 | 282 | 3.0 | 3.0 | 0.00 | 0.00 | 0.00 | 44 | 1033.7 |
| 20260504180420 | 64 | 308 | 1.0 | 1.0 | 0.00 | 0.00 | 0.00 | 45 | 1033.7 |
| 20260504175918 | 64 | 22 | 3.0 | 5.0 | 0.00 | 0.00 | 0.00 | 43 | 1033.3 |
| 20260504175415 | 65 | 350 | 2.0 | 3.0 | 0.00 | 0.00 | 0.00 | 43 | 1033.6 |
| 20260504174913 | 64 | 2 | 1.0 | 1.0 | 0.00 | 0.00 | 0.00 | 43 | 1033.6 |
| 20260504174410 | 63 | 332 | 0.0 | 0.0 | 0.00 | 0.00 | 0.00 | 44 | 1033.6 |
| 20260504173907 | 63 | 1 | 1.0 | 1.0 | 0.00 | 0.00 | 0.00 | 44 | 1033.7 |
| 20260504173403 | 64 | 282 | 7.0 | 10.0 | 0.00 | 0.00 | 0.00 | 43 | 1033.9 |
| 20260504172901 | 63 | 324 | 0.0 | 0.0 | 0.00 | 0.00 | 0.00 | 44 | 1033.8 |
| 20260504172357 | 63 | 25 | 0.0 | 0.0 | 0.00 | 0.00 | 0.00 | 43 | 1033.8 |
| 20260504171853 | 62 | 330 | 0.0 | 0.0 | 0.00 | 0.00 | 0.00 | 48 | 1033.9 |
| 20260504171351 | 61 | 344 | 1.0 | 1.0 | 0.00 | 0.00 | 0.00 | 46 | 1034.0 |
| 20260504170848 | 61 | 319 | 1.0 | 2.0 | 0.00 | 0.00 | 0.00 | 46 | 1033.9 |
| 20260504170344 | 61 | 321 | 0.0 | 0.0 | 0.00 | 0.00 | 0.00 | 46 | 1033.9 |
| 20260504160303 | 61 | 292 | 2.0 | 2.0 | 0.00 | 0.00 | 0.00 | 47 | 1034.2 |
| 20260504150728 | 60 | 291 | 2.0 | 3.0 | 0.00 | 0.00 | 0.00 | 48 | 1034.3 |
| 20260504150225 | 62 | 304 | 1.0 | 1.0 | 0.00 | 0.00 | 0.00 | 44 | 1034.1 |
| 20260504141154 | 59 | 194 | 2.0 | 3.0 | 0.00 | 0.00 | 0.00 | 48 | 1034.1 |
| 20260504140651 | 58 | 184 | 2.0 | 3.0 | 0.00 | 0.00 | 0.00 | 49 | 1034.2 |
| 20260504140146 | 57 | 186 | 2.0 | 2.0 | 0.00 | 0.00 | 0.00 | 49 | 1034.2 |
| 20260504130615 | 55 | 287 | 1.0 | 1.0 | 0.00 | 0.00 | 0.00 | 52 | 1034.7 |
| 20260504130112 | 55 | 82 | 3.0 | 3.0 | 0.00 | 0.00 | 0.00 | 52 | 1034.8 |
| 20260504110503 | 44 | 322 | 0.0 | 0.0 | 0.00 | 0.00 | 0.00 | 82 | 1034.9 |
| 20260504100419 | 41 | 347 | 0.0 | 0.0 | 0.00 | 0.00 | 0.00 | 87 | 1035.1 |
| 20260504081812 | 38 | 321 | 0.0 | 0.0 | 0.00 | 0.00 | 0.00 | 90 | 1034.9 |
| 20260504081309 | 38 | 322 | 0.0 | 0.0 | 0.00 | 0.00 | 0.00 | 90 | 1034.9 |
| 20260504080805 | 37 | 323 | 0.0 | 0.0 | 0.00 | 0.00 | 0.00 | 90 | 1035.2 |
| 20260504080301 | 37 | 342 | 0.0 | 0.0 | 0.00 | 0.00 | 0.00 | 90 | 1035.1 |
| 20260504070229 | 39 | 334 | 0.0 | 0.0 | 0.00 | 0.00 | 0.00 | 89 | 1035.1 |
| 20260504060149 | 36 | 354 | 0.0 | 0.0 | 0.00 | 0.00 | 0.00 | 83 | 1034.8 |
| 20260504050618 | 34 | 349 | 0.0 | 0.0 | 0.00 | 0.00 | 0.00 | 86 | 1034.8 |
| 20260504050115 | 34 | 0 | 0.0 | 1.0 | 0.00 | 0.00 | 0.00 | 86 | 1034.8 |
| 20260504045612 | 34 | 9 | 1.0 | 1.0 | 0.00 | 0.00 | 0.00 | 87 | 1034.8 |
| 20260504045106 | 34 | 349 | 0.0 | 0.0 | 0.00 | 0.00 | 0.00 | 87 | 1034.9 |
| 20260504044604 | 34 | 1 | 1.0 | 1.0 | 0.00 | 0.00 | 0.00 | 86 | 1034.9 |
| 20260504044101 | 34 | 9 | 1.0 | 1.0 | 0.00 | 0.00 | 0.00 | 86 | 1035.0 |
| 20260504043558 | 34 | 326 | 0.0 | 0.0 | 0.00 | 0.00 | 0.00 | 85 | 1035.0 |
| 20260504043055 | 34 | 326 | 0.0 | 0.0 | 0.00 | 0.00 | 0.00 | 85 | 1034.9 |
| 20260504042552 | 34 | 326 | 0.0 | 0.0 | 0.00 | 0.00 | 0.00 | 85 | 1035.0 |
| 20260504042049 | 34 | 326 | 0.0 | 0.0 | 0.00 | 0.00 | 0.00 | 85 | 1034.9 |
| 20260504041545 | 34 | 326 | 0.0 | 0.0 | 0.00 | 0.00 | 0.00 | 84 | 1035.1 |
| 20260504041041 | 34 | 326 | 0.0 | 0.0 | 0.00 | 0.00 | 0.00 | 84 | 1035.1 |
| 20260504040539 | 34 | 326 | 0.0 | 0.0 | 0.00 | 0.00 | 0.00 | 83 | 1035.0 |
| 20260504040035 | 34 | 326 | 0.0 | 0.0 | 0.00 | 0.00 | 0.00 | 83 | 1035.1 |
| 20260504035532 | 34 | 326 | 0.0 | 0.0 | 0.00 | 0.00 | 0.00 | 82 | 1035.1 |
| 20260504035028 | 34 | 326 | 0.0 | 0.0 | 0.00 | 0.00 | 0.00 | 81 | 1035.1 |
| 20260504034526 | 34 | 326 | 0.0 | 0.0 | 0.00 | 0.00 | 0.00 | 81 | 1035.0 |
| 20260504034023 | 35 | 326 | 0.0 | 0.0 | 0.00 | 0.00 | 0.00 | 81 | 1035.2 |
| 20260504033521 | 35 | 325 | 0.0 | 0.0 | 0.00 | 0.00 | 0.00 | 81 | 1035.4 |
| 20260504033018 | 35 | 325 | 0.0 | 0.0 | 0.00 | 0.00 | 0.00 | 82 | 1035.2 |
| 20260504032515 | 35 | 326 | 0.0 | 0.0 | 0.00 | 0.00 | 0.00 | 82 | 1035.4 |
| 20260504032012 | 35 | 326 | 0.0 | 0.0 | 0.00 | 0.00 | 0.00 | 81 | 1035.5 |
| 20260504031509 | 35 | 324 | 0.0 | 0.0 | 0.00 | 0.00 | 0.00 | 82 | 1035.5 |
| 20260504031005 | 35 | 326 | 0.0 | 0.0 | 0.00 | 0.00 | 0.00 | 81 | 1035.5 |
| 20260504030503 | 36 | 327 | 0.0 | 0.0 | 0.00 | 0.00 | 0.00 | 80 | 1035.3 |
| 20260504025958 | 36 | 326 | 0.0 | 0.0 | 0.00 | 0.00 | 0.00 | 79 | 1035.5 |
| 20260504025455 | 37 | 326 | 0.0 | 0.0 | 0.00 | 0.00 | 0.00 | 79 | 1035.4 |
| 20260504024952 | 36 | 326 | 0.0 | 0.0 | 0.00 | 0.00 | 0.00 | 79 | 1035.7 |
| 20260504024449 | 37 | 326 | 0.0 | 0.0 | 0.00 | 0.00 | 0.00 | 77 | 1035.6 |
| 20260504023946 | 37 | 327 | 0.0 | 0.0 | 0.00 | 0.00 | 0.00 | 78 | 1035.7 |
| 20260504023443 | 37 | 327 | 0.0 | 0.0 | 0.00 | 0.00 | 0.00 | 78 | 1035.6 |
| 20260504022938 | 37 | 328 | 0.0 | 0.0 | 0.00 | 0.00 | 0.00 | 77 | 1036.0 |
| 20260504022435 | 37 | 328 | 0.0 | 0.0 | 0.00 | 0.00 | 0.00 | 77 | 1035.8 |